Location: Aranbee
(34.0885°N, 118.2342°W)
Time: 13:27:02
(UTC+00:00)

Tiros 1 - Pass Details

Date: 28 November 2020
Orbit: 630 x 663 km, 48.4° (Epoch: 21 January)

Event Time Altitude Azimuth Distance (km) Brightness Sun altitude
Rises 01:50:29 0° 294° (WNW) 2,988 11.4 -13.7°
Reaches altitude 10° 01:53:51 10° 319° (NW) 2,072 10.1 -14.3°
Maximum altitude 01:56:32 15° 353° (N) 1,767 9.3 -14.9°
Enters shadow 01:58:47 11° 23° (NNE) 1,977 9.3 -15.3°
Drops below altitude 10° 01:59:14 10° 28° (NNE) 2,063 - -15.4°
Sets 02:02:34 0° 52° (NE) 2,967 - -16.1°
